User: anonymous   Login
Location: Edinburgh
(55.9500°N, 3.1600°W)
Time: 12:57:50
(UTC+01:00)
Language:

UKube-1 - Orbit

View from above orbital plane
View from above orbital plane
View from above satellite
View from above satellite

Ground track
Ground track

The orbit data is extracted from the following two-line orbital elements,

1 40074U 14037F   18116.22614831  .00000462  00000-0  62906-4 0  9993
2 40074  98.3794 250.8836 0005856 117.8023 242.3781 14.83771087205599
Epoch (UTC): 26 April 2018 05:25:39
Eccentricity: 0.0005856
inclination: 98.3794°
perigee height: 613 km
apogee height: 621 km
right ascension of ascending node: 250.8836°
argument of perigee: 117.8023°
revolutions per day: 14.83771087
mean anomaly at epoch: 242.3781°
orbit number at epoch: 20559

The dashed part of the orbit path shows where the satellite is in the earth's shadow,  

DLR